Hourly Weather Ovsyannikovo

Today, 6 May, Thursday

Time Temperature Precipitation Wind Pressure Humidity
00:00 +9°C° 0 mm 5 mps 742 mmHg 77%
01:00 +9°C° 0 mm 5 mps 742 mmHg 76%
02:00 +9°C° 0 mm 5 mps 742 mmHg 75%
03:00 +9°C° 0 mm 5 mps 742 mmHg 73%
04:00 +9°C° 0 mm 5 mps 741 mmHg 74%
05:00 +9°C° 0 mm 5 mps 741 mmHg 75%
06:00 +9°C° 0 mm 5 mps 741 mmHg 76%
07:00 +10°C° 0 mm 5 mps 741 mmHg 76%
08:00 +10°C° 0 mm 5 mps 741 mmHg 76%
09:00 +11°C° 0 mm 6 mps 741 mmHg 76%
10:00 +12°C° 0 mm 7 mps 741 mmHg 71%
11:00 +14°C° 0 mm 7 mps 741 mmHg 66%
12:00 +15°C° 0 mm 8 mps 741 mmHg 61%
13:00 +15°C° 0 mm 8 mps 740 mmHg 60%
14:00 +15°C° 0 mm 8 mps 740 mmHg 59%
15:00 +15°C° 0 mm 8 mps 740 mmHg 58%
16:00 +13°C° 0.1 mm 8 mps 740 mmHg 62%
17:00 +13°C° 0.1 mm 8 mps 740 mmHg 65%
18:00 +12°C° 0.1 mm 8 mps 740 mmHg 69%
19:00 +11°C° 0.2 mm 7 mps 741 mmHg 75%
20:00 +10°C° 0.2 mm 6 mps 741 mmHg 81%
21:00 +9°C° 0.2 mm 5 mps 741 mmHg 86%
22:00 +8°C° 0.7 mm 4 mps 741 mmHg 88%
23:00 +9°C° 0.7 mm 3 mps 742 mmHg 90%

Tomorrow, 7 May, Friday

Time Temperature Precipitation Wind Pressure Humidity
00:00 +9°C° 0.7 mm 3 mps 742 mmHg 92%
01:00 +8°C° 0.1 mm 3 mps 742 mmHg 92%
02:00 +8°C° 0.1 mm 3 mps 742 mmHg 92%
03:00 +8°C° 0.1 mm 2 mps 742 mmHg 92%
04:00 +7°C° 0 mm 2 mps 743 mmHg 91%
05:00 +7°C° 0 mm 2 mps 743 mmHg 90%
06:00 +7°C° 0 mm 2 mps 743 mmHg 89%
07:00 +8°C° 0 mm 3 mps 744 mmHg 80%
08:00 +9°C° 0 mm 3 mps 744 mmHg 71%
09:00 +10°C° 0 mm 3 mps 744 mmHg 62%
10:00 +11°C° 0 mm 3 mps 745 mmHg 55%
11:00 +12°C° 0 mm 3 mps 745 mmHg 49%
12:00 +13°C° 0 mm 3 mps 745 mmHg 42%
13:00 +14°C° 0 mm 3 mps 745 mmHg 41%
14:00 +14°C° 0 mm 3 mps 745 mmHg 39%
15:00 +14°C° 0 mm 3 mps 745 mmHg 38%
16:00 +14°C° 0 mm 3 mps 745 mmHg 42%
17:00 +14°C° 0 mm 3 mps 745 mmHg 46%
18:00 +14°C° 0 mm 3 mps 744 mmHg 50%
19:00 +12°C° 0 mm 3 mps 745 mmHg 53%
20:00 +11°C° 0 mm 3 mps 745 mmHg 57%
21:00 +10°C° 0 mm 3 mps 745 mmHg 60%
22:00 +8°C° 0 mm 4 mps 744 mmHg 60%
23:00 +8°C° 0 mm 4 mps 744 mmHg 60%

Day after tomorrow, 8 May, Saturday

Time Temperature Precipitation Wind Pressure Humidity
00:00 +8°C° 0 mm 4 mps 744 mmHg 60%
01:00 +8°C° 0 mm 5 mps 744 mmHg 61%
02:00 +7°C° 0 mm 5 mps 743 mmHg 62%
03:00 +7°C° 0 mm 6 mps 743 mmHg 63%
04:00 +7°C° 0.1 mm 6 mps 742 mmHg 68%
05:00 +8°C° 0.1 mm 7 mps 742 mmHg 73%
06:00 +8°C° 0.1 mm 7 mps 741 mmHg 78%
07:00 +8°C° 0.9 mm 7 mps 741 mmHg 83%
08:00 +7°C° 0.9 mm 8 mps 740 mmHg 88%
09:00 +7°C° 0.9 mm 8 mps 739 mmHg 92%
10:00 +7°C° 0.8 mm 8 mps 739 mmHg 93%
11:00 +9°C° 0.8 mm 8 mps 739 mmHg 93%
12:00 +9°C° 0.8 mm 8 mps 739 mmHg 93%
13:00 +9°C° 1.1 mm 7 mps 738 mmHg 94%
14:00 +10°C° 1.1 mm 7 mps 738 mmHg 94%
15:00 +10°C° 1.1 mm 6 mps 738 mmHg 95%
16:00 +9°C° 0.8 mm 6 mps 738 mmHg 94%
17:00 +9°C° 0.8 mm 5 mps 739 mmHg 93%
18:00 +8°C° 0.8 mm 5 mps 739 mmHg 91%
19:00 +7°C° 0.1 mm 5 mps 739 mmHg 88%
20:00 +7°C° 0.1 mm 6 mps 740 mmHg 84%
21:00 +5°C° 0.1 mm 6 mps 740 mmHg 80%
22:00 +4°C° 0 mm 6 mps 740 mmHg 81%
23:00 +4°C° 0 mm 6 mps 741 mmHg 83%

9 May, Sunday

Time Temperature Precipitation Wind Pressure Humidity
00:00 +3°C° 0 mm 6 mps 741 mmHg 84%
01:00 +3°C° 0 mm 5 mps 742 mmHg 84%
02:00 +3°C° 0 mm 5 mps 742 mmHg 85%
03:00 +3°C° 0 mm 5 mps 743 mmHg 85%
04:00 +4°C° 0 mm 4 mps 743 mmHg 84%
05:00 +4°C° 0 mm 4 mps 744 mmHg 82%
06:00 +4°C° 0 mm 4 mps 744 mmHg 81%
07:00 +5°C° 0 mm 5 mps 744 mmHg 77%
08:00 +5°C° 0 mm 5 mps 745 mmHg 74%
09:00 +5°C° 0 mm 6 mps 745 mmHg 71%
10:00 +5°C° 0 mm 6 mps 745 mmHg 68%
11:00 +7°C° 0 mm 6 mps 746 mmHg 65%
12:00 +7°C° 0 mm 6 mps 746 mmHg 62%
13:00 +8°C° 0 mm 6 mps 746 mmHg 58%
14:00 +9°C° 0 mm 6 mps 747 mmHg 53%
15:00 +10°C° 0 mm 6 mps 747 mmHg 49%
16:00 +10°C° 0 mm 5 mps 747 mmHg 51%
17:00 +10°C° 0 mm 5 mps 747 mmHg 54%
18:00 +10°C° 0 mm 5 mps 748 mmHg 56%
19:00 +10°C° 0 mm 4 mps 748 mmHg 61%
20:00 +7°C° 0 mm 4 mps 749 mmHg 65%
21:00 +7°C° 0 mm 3 mps 750 mmHg 70%
22:00 +5°C° 0 mm 4 mps 750 mmHg 70%
23:00 +5°C° 0 mm 4 mps 750 mmHg 71%

10 May, Monday

Time Temperature Precipitation Wind Pressure Humidity
00:00 +4°C° 0 mm 4 mps 751 mmHg 71%
01:00 +4°C° 0 mm 4 mps 751 mmHg 72%
02:00 +3°C° 0 mm 4 mps 752 mmHg 73%
03:00 +3°C° 0 mm 4 mps 752 mmHg 74%
04:00 +3°C° 0 mm 4 mps 752 mmHg 75%
05:00 +3°C° 0 mm 4 mps 753 mmHg 76%
06:00 +2°C° 0 mm 5 mps 753 mmHg 77%
07:00 +5°C° 0 mm 5 mps 753 mmHg 71%
08:00 +7°C° 0 mm 6 mps 754 mmHg 66%
09:00 +8°C° 0 mm 6 mps 754 mmHg 60%
10:00 +9°C° 0 mm 7 mps 754 mmHg 56%
11:00 +10°C° 0 mm 7 mps 754 mmHg 53%
12:00 +11°C° 0 mm 7 mps 754 mmHg 50%
13:00 +12°C° 0 mm 7 mps 754 mmHg 48%
14:00 +12°C° 0 mm 7 mps 753 mmHg 47%
15:00 +12°C° 0 mm 7 mps 753 mmHg 45%
16:00 +12°C° 0 mm 7 mps 753 mmHg 49%
17:00 +12°C° 0 mm 7 mps 753 mmHg 53%
18:00 +11°C° 0 mm 6 mps 753 mmHg 57%
19:00 +11°C° 0 mm 6 mps 753 mmHg 59%
20:00 +10°C° 0 mm 5 mps 753 mmHg 61%
21:00 +10°C° 0 mm 5 mps 753 mmHg 63%
22:00 +9°C° 0 mm 5 mps 753 mmHg 64%
23:00 +9°C° 0 mm 5 mps 753 mmHg 66%

11 May, Tuesday

Time Temperature Precipitation Wind Pressure Humidity
00:00 +9°C° 0 mm 5 mps 753 mmHg 67%
01:00 +8°C° 0 mm 6 mps 752 mmHg 68%
02:00 +8°C° 0 mm 6 mps 752 mmHg 69%
03:00 +8°C° 0 mm 6 mps 752 mmHg 71%
04:00 +8°C° 0 mm 6 mps 752 mmHg 73%
05:00 +8°C° 0 mm 6 mps 752 mmHg 76%
06:00 +8°C° 0 mm 6 mps 752 mmHg 79%
07:00 +9°C° 0 mm 6 mps 752 mmHg 78%
08:00 +11°C° 0 mm 6 mps 752 mmHg 77%
09:00 +13°C° 0 mm 6 mps 752 mmHg 77%
10:00 +14°C° 0 mm 6 mps 752 mmHg 75%
11:00 +16°C° 0 mm 6 mps 752 mmHg 73%
12:00 +17°C° 0 mm 6 mps 752 mmHg 71%
13:00 +17°C° 0.2 mm 6 mps 752 mmHg 72%
14:00 +17°C° 0.2 mm 6 mps 752 mmHg 72%
15:00 +17°C° 0.2 mm 6 mps 752 mmHg 73%
16:00 +17°C° 0.1 mm 6 mps 752 mmHg 75%
17:00 +16°C° 0.1 mm 5 mps 752 mmHg 78%
18:00 +15°C° 0.1 mm 5 mps 752 mmHg 81%
19:00 +14°C° 0 mm 4 mps 752 mmHg 83%
20:00 +13°C° 0 mm 3 mps 753 mmHg 85%
21:00 +12°C° 0 mm 2 mps 753 mmHg 88%
22:00 +12°C° 0 mm 1 mps 752 mmHg 86%
23:00 +12°C° 0 mm 1 mps 752 mmHg 84%
Show more

We Need Your Consent

Meteoprog and our Service Providers may store and access personal data such as cookies, device identifiers or other similar technologies on your device and process such data to personalise content and ads, as well as provide social media features and to analyse the traffic.

  • Store and/or access information on your device

    Cookies, device identifiers or other information can be stored or accessed on your device for the purposes indicated above.

  • Personalised ads and content, ad and content measurement, audience insights, and products development

    Ads and content can be personalised based on a profile. More data can be added to better personalise ads and content. Ad and content performance can be measured. Insights about the audience who saw the ads and content can be derived. Such data can be used to develop or improve user’s experience, systems and software.

By clicking ‘I Agree’ you will allow the use of indicated cookies, device identifiers, web beacons or other similar technologies. Your settings can be changed in the browser on your device.

For certain purposes, legitimate interests may be relied on, rather than consent. You can read more about this in our Privacy and Cookie Policy.